Panama City Beach Gulf Coast Weather Center

Moon Phase Calendar



Online Cameras

 


      

Current Conditions in Panama City
10/24/2020 3:56:18 PM

69°F
Feels Like 71
Clear
Humidity
88%
Pressure
29.91"
Wind
5.8 mph (NE)
Dew Point
66°F
UV Index
6/10 (High)
Visibility
6 mi

Hourly Forecast

Date & Time Sat, Oct 24
3:00 PM
Sat, Oct 24
4:00 PM
Sat, Oct 24
5:00 PM
Sat, Oct 24
6:00 PM
Sat, Oct 24
7:00 PM
Sat, Oct 24
8:00 PM
Sat, Oct 24
9:00 PM
Sat, Oct 24
10:00 PM
Sat, Oct 24
11:00 PM
Sun, Oct 25
12:00 AM
Sun, Oct 25
1:00 AM
Sun, Oct 25
2:00 AM
Sun, Oct 25
3:00 AM
Sun, Oct 25
4:00 AM
Sun, Oct 25
5:00 AM
Sun, Oct 25
6:00 AM
Sun, Oct 25
7:00 AM
Sun, Oct 25
8:00 AM
Sun, Oct 25
9:00 AM
Sun, Oct 25
10:00 AM
Sun, Oct 25
11:00 AM
Sun, Oct 25
12:00 PM
Sun, Oct 25
1:00 PM
Sun, Oct 25
2:00 PM
Sun, Oct 25
3:00 PM
Sun, Oct 25
4:00 PM
Sun, Oct 25
5:00 PM
Sun, Oct 25
6:00 PM
Sun, Oct 25
7:00 PM
Sun, Oct 25
8:00 PM
Sun, Oct 25
9:00 PM
Sun, Oct 25
10:00 PM
Sun, Oct 25
11:00 PM
Mon, Oct 26
12:00 AM
Mon, Oct 26
1:00 AM
Mon, Oct 26
2:00 AM
Mon, Oct 26
3:00 AM
Mon, Oct 26
4:00 AM
Mon, Oct 26
5:00 AM
Mon, Oct 26
6:00 AM
Mon, Oct 26
7:00 AM
Mon, Oct 26
8:00 AM
Mon, Oct 26
9:00 AM
Mon, Oct 26
10:00 AM
Mon, Oct 26
11:00 AM
Mon, Oct 26
12:00 PM
Mon, Oct 26
1:00 PM
Mon, Oct 26
2:00 PM
Condition
Rain

Clouds

Clouds

Clouds

Clouds

Clear

Rain

Rain

Clear

Clear

Clear

Clear

Clear

Clear

Clear

Clear

Clear

Clear

Clear

Clear

Clear

Clouds

Clouds

Clouds

Clouds

Clouds

Clouds

Clouds

Clouds

Clear

Clear

Clear

Clear

Clear

Clear

Clear

Clear

Clear

Clear

Clear

Clear

Clear

Clear

Clear

Clear

Clear

Clear

Clouds
Temperature 69°F74°F76°F76°F76°F75°F75°F75°F74°F74°F74°F73°F73°F72°F71°F71°F70°F71°F74°F76°F79°F82°F82°F81°F81°F80°F79°F76°F75°F74°F73°F73°F72°F71°F71°F71°F70°F70°F70°F70°F69°F72°F75°F79°F82°F84°F85°F85°F
Feels Like 69°F76°F80°F81°F80°F80°F81°F81°F81°F81°F80°F80°F79°F78°F76°F75°F74°F75°F78°F81°F84°F88°F87°F85°F85°F83°F82°F80°F78°F77°F76°F75°F74°F74°F73°F72°F72°F72°F72°F72°F72°F74°F77°F82°F86°F88°F89°F88°F
Cloudiness 1%45%63%60%53%0%0%0%0%0%0%0%0%0%0%0%0%7%8%9%10%13%18%49%45%39%35%33%30%0%0%0%0%0%0%0%0%0%0%0%0%1%0%0%0%0%2%27%
Visibility 6 mi6 mi6 mi6 mi6 mi6 mi6 mi6 mi6 mi6 mi6 mi6 mi6 mi6 mi6 mi6 mi6 mi6 mi6 mi6 mi6 mi6 mi6 mi6 mi6 mi6 mi6 mi6 mi6 mi6 mi6 mi6 mi6 mi6 mi6 mi6 mi6 mi6 mi6 mi6 mi6 mi6 mi6 mi6 mi6 mi6 mi6 mi6 mi
Precipitation 95%80%80%80%80%9%21%36%48%48%47%0%0%0%0%0%0%0%0%0%0%0%0%0%0%0%0%0%0%0%0%0%0%0%0%0%0%0%0%0%0%0%0%0%0%0%0%0%
Humidity 88%81%79%82%84%85%87%87%87%88%89%90%90%91%92%93%94%91%86%79%71%64%63%64%65%68%72%78%82%83%84%85%87%87%88%88%90%91%91%92%92%87%79%71%65%60%58%58%
Dew Point 66°F68°F69°F70°F70°F71°F71°F71°F70°F70°F70°F70°F70°F69°F69°F69°F68°F69°F69°F69°F69°F69°F69°F68°F68°F69°F69°F69°F69°F69°F68°F68°F68°F68°F67°F67°F67°F67°F67°F67°F67°F68°F68°F69°F69°F69°F69°F69°F
Pressure 29.91"29.88"29.85"29.85"29.88"29.88"29.91"29.91"29.91"29.88"29.88"29.88"29.88"29.88"29.88"29.88"29.88"29.91"29.94"29.94"29.94"29.94"29.94"29.91"29.88"29.85"29.88"29.88"29.91"29.94"29.94"29.97"29.97"29.94"29.94"29.94"29.94"29.94"29.94"29.97"29.97"30"30"30"30"30"29.97"29.94"
Wind Speed 9.9 mph8.3 mph6.7 mph5.2 mph5.2 mph4.8 mph3.9 mph3 mph2.5 mph2 mph1.5 mph0.6 mph2 mph2.6 mph3.6 mph4.5 mph5.4 mph5.7 mph5.6 mph5.2 mph3.4 mph1.4 mph3.3 mph5.1 mph5.6 mph7.2 mph7 mph6.7 mph6.7 mph6.5 mph7.6 mph8.1 mph7.7 mph7.4 mph7.8 mph7.8 mph7.6 mph7.6 mph7.4 mph6.7 mph6.7 mph7.5 mph7.2 mph6.4 mph5.9 mph5.4 mph5.3 mph6.3 mph
Wind
Direction
180°
S
180°
S
176°
S
176°
S
167°
SSE
164°
SSE
167°
SSE
163°
SSE
161°
SSE
158°
SSE
142°
SE
54°
NE
42°
NE
27°
NNE
37°
NE
30°
NNE
19°
NNE
25°
NNE
25°
NNE
29°
NNE
31°
NNE
354°
N
270°
W
278°
W
287°
WNW
294°
WNW
304°
NW
316°
NW
335°
NNW
360°
N
16°
NNE
15°
NNE
24°
NNE
28°
NNE
35°
NE
44°
NE
47°
NE
52°
NE
53°
NE
50°
NE
50°
NE
56°
NE
66°
ENE
78°
ENE
102°
ESE
125°
SE
147°
SSE
167°
SSE

Daily Forecast

Date High Low Precip. Humidity
Today
Oct 24

Rain
78 °F
69 °F
100%
88%
Sunday
Oct 25

Clouds
82 °F
70 °F
47%
63%
Monday
Oct 26

Clear
85 °F
69 °F
0%
58%
Tuesday
Oct 27

Rain
83 °F
74 °F
56%
72%
Wednesday
Oct 28

Rain
79 °F
74 °F
100%
80%
Thursday
Oct 29

Rain
80 °F
70 °F
100%
80%
Friday
Oct 30

Clouds
69 °F
59 °F
0%
63%
Saturday
Oct 31

Clear
72 °F
58 °F
0%
57%
Sunday
Nov 1

Clouds
77 °F
61 °F
0%
53%
Monday
Nov 2

Clear
75 °F
60 °F
0%
57%
Tuesday
Nov 3

Clear
74 °F
57 °F
0%
41%
Wednesday
Nov 4

Clear
74 °F
57 °F
0%
36%
Thursday
Nov 5

Clouds
73 °F
56 °F
0%
37%
Friday
Nov 6

Clear
69 °F
53 °F
0%
49%
Saturday
Nov 7

Clouds
66 °F
51 °F
0%
44%
Sunday
Nov 8

Clouds
70 °F
51 °F
0%
34%


Temperature 8-14 Day Outlook



Precipitation 8-14 Day Outlook




Quick Links
Panama City Beach Gulf Coast News
Panama City Beach Gulf Coast Photos
Panama City Beach Gulf Coast Videos




About Us
Contact Us
Site Map
Search Site
Advertise With Us
   
PanamaCity.USGulf.info
THE PANAMA CITY BEACH GULF COAST WEBSITE

Copyright 2020, Coastal Town
Privacy    |    Legal